Dewpoint
56 47 43 46 50 49 46 49 50 49 51 52 53 53 52 53 53 51 61 64 63 61 62 64 70 70 70 70 70 70 70 70 70 71 71 71 71 71 70 70 70 71 70 69 68 68 68 68 68
49 46 44 51 47 43 48 52 51 52 52 52 52 51 51 50 53 57 57 60 63 58 61 65 68 69 69 69 70 70 69 69 70 70 70 70 70 70 70 70 70 70 69 69 68 68 68 67 68
52 49 55 54 49 47 48 50 52 53 53 51 51 51 49 48 51 54 58 58 57 58 61 65 67 68 68 69 69 69 69 70 70 70 68 68 69 70 70 70 70 70 69 69 68 69 69 68 68
47 53 56 48 48 51 51 52 53 52 53 54 52 50 50 51 50 54 57 57 58 59 63 66 66 66 67 67 67 68 68 69 69 69 68 67 67 68 68 69 69 69 68 68 68 68 69 68 67
47 57 50 49 49 50 50 50 54 52 52 52 51 49 49 50 51 51 55 58 59 61 64 66 67 66 65 65 66 67 67 68 68 68 68 68 67 67 67 68 68 68 68 67 67 67 68 69 68
46 54 47 46 47 50 51 49 51 51 51 52 50 49 48 49 47 47 52 56 59 62 64 67 68 66 65 65 65 66 67 67 68 67 67 68 67 66 66 67 68 68 68 68 67 67 67 67 67
37 43 44 46 45 46 48 50 49 50 50 50 50 48 48 44 43 44 52 55 57 60 62 65 66 66 65 64 64 65 66 66 66 67 67 67 67 67 66 67 67 67 67 67 67 67 66 66 66
39 42 43 44 44 45 46 47 49 48 49 49 47 47 44 37 37 39 48 51 52 56 57 60 61 65 65 63 63 64 65 64 64 64 64 66 67 67 68 67 67 67 66 66 66 66 66 66 65
40 37 37 41 42 45 46 46 48 47 44 44 42 39 34 32 35 40 40 45 49 49 54 56 56 59 64 63 62 64 63 64 63 61 62 62 65 65 66 67 67 67 68 67 67 66 65 65 65
49 42 43 46 46 46 46 46 46 45 42 38 36 32 31 30 31 32 36 39 42 45 47 50 54 55 56 50 61 62 59 59 58 56 59 59 62 63 63 65 66 68 67 67 67 67 66 65 59
44 43 45 46 47 46 45 44 44 42 38 39 32 29 28 29 31 32 35 34 38 43 46 45 52 56 54 56 52 51 51 54 53 56 55 59 61 59 61 62 63 64 66 65 66 66 64 63 61
42 44 45 46 46 45 43 39 38 39 35 30 27 28 29 32 31 30 30 30 34 38 43 45 49 54 56 50 49 49 49 51 50 53 53 52 53 54 61 61 62 61 62 63 63 63 65 65 64
42 42 42 40 39 37 34 31 30 27 27 28 29 30 29 29 29 31 30 33 36 38 43 45 48 53 53 52 52 52 52 51 52 51 53 52 52 54 54 56 56 55 59 61 63 62 62 63 63
39 37 36 35 33 31 29 28 28 27 28 28 28 26 26 27 27 30 31 34 36 38 43 46 47 51 53 51 54 52 53 50 51 51 52 52 51 53 51 50 49 52 53 55 58 63 62 62 61
36 34 34 33 31 30 28 27 26 27 26 25 24 24 25 26 27 29 30 32 35 39 42 45 47 51 52 51 50 51 50 49 50 50 52 53 51 51 52 49 48 48 50 49 48 49 52 59 57
31 29 26 27 26 26 23 23 24 24 23 22 21 23 25 26 27 28 32 32 36 39 42 45 41 49 52 51 50 49 49 50 50 49 50 53 51 50 52 48 48 50 47 47 46 47 48 49 53
24 20 22 23 22 19 21 23 23 22 20 21 22 24 25 27 28 30 30 33 35 41 42 44 47 47 48 49 49 50 50 48 49 49 49 52 50 51 49 49 49 49 47 47 46 45 46 45 47
20 19 19 16 18 13 15 20 22 21 19 21 22 23 25 26 28 31 32 36 36 44 45 45 45 47 48 48 47 46 47 47 47 48 48 51 50 50 49 47 50 47 47 46 46 45 45 44 47
14 18 14 13 13 14 14 20 20 21 18 20 20 23 24 27 30 32 37 39 37 43 42 43 43 45 46 43 43 44 43 44 45 45 48 47 50 49 50 48 48 47 47 47 46 44 43 41 45
14 13 11 10 12 18 13 17 18 19 18 20 20 22 25 27 28 32 36 39 42 42 43 42 42 43 44 43 44 43 43 44 44 45 47 47 47 49 43 49 47 49 47 47 47 45 42 40 42
10 11 12 9 10 17 13 13 16 18 19 20 22 23 24 26 29 31 33 39 41 41 43 40 42 43 44 47 43 43 44 45 44 45 45 46 45 46 47 47 48 49 48 46 47 46 44 40 40
9 10 7 9 9 9 12 5 15 17 19 21 23 26 26 27 28 30 32 36 42 43 44 43 42 42 43 46 45 47 42 40 44 46 47 46 46 44 46 47 48 48 48 47 46 45 46 44 39
14 10 9 9 9 12 11 2 7 17 17 19 24 26 28 29 29 28 31 33 36 43 46 45 43 42 44 45 46 45 45 44 44 46 47 47 47 45 45 47 48 48 47 47 47 47 46 44 43
13 13 13 13 14 16 11 8 13 16 18 18 22 26 29 29 30 29 31 34 36 45 46 46 43 40 43 44 45 46 47 47 45 45 46 46 46 46 47 46 47 48 47 46 46 47 46 45 44
14 19 33 22 26 24 8 7 8 17 16 16 21 25 29 31 33 31 29 30 35 40 44 43 42 40 42 44 45 46 47 48 47 46 44 46 45 46 47 48 48 48 48 48 48 47 47 47 45
16 22 42 28 23 16 9 2 25 19 18 21 20 25 29 32 34 31 31 34 34 39 41 42 40 40 41 42 45 48 49 46 45 47 47 47 47 48 49 50 50 49 48 48 48 48 47 47 48
17 26 27 28 26 18 6 18 22 17 18 19 20 24 30 32 33 31 32 36 36 38 41 43 42 40 41 45 46 47 47 47 46 48 49 47 49 46 47 50 50 50 50 50 49 48 47 47 47
28 26 30 41 30 27 7 6 16 16 15 18 19 25 31 32 33 32 32 37 36 37 39 43 43 41 43 45 45 44 46 46 46 46 46 46 46 45 45 45 46 46 46 48 48 47 47 47 47
25 31 32 36 34 33 23 11 22 21 18 22 24 27 32 34 33 33 34 36 37 39 40 42 41 40 42 43 44 46 45 44 43 43 43 43 43 42 41 41 40 41 42 43 44 45 44 44 45
22 23 27 37 31 34 27 18 24 26 26 29 26 27 33 34 34 33 34 37 37 37 37 40 41 40 38 38 40 42 41 40 39 38 38 39 38 38 36 35 35 35 35 37 37 36 37 39 41
Lifted_Index
3 2 -0 -2 -2 -1 -1 -2 -3 -3 -2 -2 -1 -1 -1 -1 -1 -1 -1 -1 -1 -0 -0 -1 -2 -2 -2 -2 -2 -2 -3 -3 -3 -4 -4 -4 -4 -4 -4 -4 -4 -4 -4 -4 -3 -3 -3 -3 -3
1 0 -1 -2 -1 -1 -2 -2 -2 -2 -2 -1 -1 -1 -1 -0 -0 -0 -0 -0 0 0 0 -0 -1 -2 -2 -2 -2 -2 -3 -3 -3 -3 -3 -4 -4 -4 -4 -4 -4 -4 -4 -4 -3 -3 -3 -3 -3
-1 -2 -2 -1 -1 -2 -2 -2 -2 -2 -1 -1 -0 -0 -0 0 0 1 1 1 1 1 0 -0 -1 -1 -1 -2 -2 -2 -2 -3 -3 -3 -3 -3 -3 -3 -4 -4 -4 -4 -4 -3 -3 -3 -3 -3 -2
-2 -2 -2 -1 -1 -2 -2 -2 -1 -1 -1 -0 -0 -0 0 1 2 2 2 1 1 0 -0 -0 -0 -0 -1 -1 -1 -2 -2 -2 -3 -3 -2 -2 -2 -2 -3 -3 -3 -3 -3 -3 -2 -2 -3 -2 -2
-2 -2 -1 -1 -1 -1 -1 -1 -1 -0 -0 -0 -0 0 1 2 2 2 1 1 1 -0 -1 -1 -1 -0 -0 -0 -0 -1 -1 -2 -2 -2 -2 -2 -2 -1 -2 -2 -2 -2 -2 -2 -2 -2 -2 -2 -2
-2 -2 -1 -1 -1 -0 0 1 1 0 0 -0 -1 0 2 3 2 2 1 1 1 -0 -1 -1 -1 -1 -0 -0 -0 -0 -1 -1 -2 -2 -2 -2 -2 -1 -1 -1 -1 -1 -1 -1 -1 -1 -1 -1 -1
-2 -2 -1 -0 0 1 1 1 1 1 1 0 -0 0 2 2 2 3 2 2 2 1 0 -0 -1 -1 -1 -0 -0 -0 -0 -0 -1 -1 -1 -2 -2 -2 -1 -1 -1 -1 -1 -1 -1 -0 -0 -0 -0
-1 -1 -1 0 1 2 2 2 2 2 1 1 1 1 1 2 3 4 4 3 3 3 2 1 1 0 -0 -0 -0 -0 0 0 0 -0 -1 -1 -2 -2 -2 -2 -2 -2 -1 -1 -1 -0 0 0 0
-1 -0 -0 1 1 2 2 2 2 2 2 2 2 2 1 2 3 5 5 5 5 5 4 3 3 2 2 1 1 1 1 1 1 0 -0 -1 -2 -2 -2 -2 -2 -2 -2 -2 -1 -1 -0 0 1
-0 -0 0 1 1 1 1 1 2 2 2 1 1 1 2 3 4 5 6 7 7 7 7 6 5 5 4 4 3 3 3 3 3 2 1 0 -1 -1 -1 -2 -2 -2 -3 -3 -2 -2 -2 -1 -0
-0 -0 0 1 1 1 1 2 2 2 1 1 1 1 3 5 6 7 8 9 9 9 8 8 7 6 6 6 6 6 6 6 6 5 4 3 2 1 0 -0 -1 -1 -2 -2 -2 -3 -3 -2 -2
0 0 1 1 1 2 2 3 2 2 2 2 3 4 6 8 9 10 10 11 10 10 10 9 8 8 7 8 8 8 8 8 7 7 7 6 5 4 3 2 1 1 0 -1 -1 -2 -2 -3 -3
1 1 2 2 2 3 3 2 2 2 4 6 7 8 9 10 10 11 11 11 11 11 11 10 10 9 9 9 9 9 9 9 9 8 8 8 8 7 6 5 4 4 3 1 0 -1 -1 -2 -2
2 2 3 3 3 3 3 3 3 5 7 9 10 10 10 10 11 11 12 12 12 12 12 11 11 10 10 10 9 9 9 9 9 9 9 9 9 8 8 7 7 6 5 4 3 1 0 -1 -1
4 3 3 4 4 5 5 5 5 8 9 10 11 11 11 11 11 12 12 12 12 12 12 12 11 11 10 10 10 10 10 10 10 10 10 10 10 9 9 9 9 8 7 6 6 4 3 1 1
4 4 4 5 6 6 6 6 7 9 10 11 11 11 11 11 12 12 12 12 12 12 12 12 12 11 11 11 11 11 11 11 11 11 10 10 10 10 9 9 9 9 8 8 8 7 5 4 3
4 5 5 6 7 8 7 7 8 10 11 11 11 11 11 11 12 12 13 13 12 12 12 12 12 12 12 11 11 11 11 11 11 11 11 10 10 10 10 10 10 9 9 9 8 8 7 6 5
4 5 5 6 8 9 8 8 9 10 11 11 11 11 11 11 12 12 13 13 13 12 12 12 12 12 12 12 12 12 12 12 12 12 11 11 10 10 10 10 10 10 9 9 9 8 7 6 6
4 5 6 7 8 8 8 8 9 10 11 11 11 11 11 11 12 12 12 12 12 12 12 12 12 12 12 12 12 12 12 12 12 12 11 11 11 10 10 10 10 10 9 9 9 9 8 7 7
5 5 6 7 7 8 8 8 9 10 10 10 10 10 10 11 11 11 12 12 12 12 12 12 12 12 12 12 12 12 12 12 11 11 11 11 11 11 10 10 10 9 9 9 9 9 9 9 8
6 6 6 6 6 7 7 7 7 8 9 9 9 10 10 10 11 11 11 12 12 12 12 12 12 12 12 12 12 12 11 11 11 10 10 10 10 10 10 10 9 9 9 9 9 9 9 9 9
6 6 6 6 6 6 6 5 6 7 7 8 9 9 10 10 11 11 11 11 11 12 12 12 12 12 12 12 11 11 11 11 10 10 10 9 9 10 9 9 9 9 8 9 9 9 9 9 9
7 7 6 6 5 5 5 4 5 6 6 7 8 9 9 10 11 11 11 11 11 11 11 12 12 12 12 11 11 11 11 11 10 10 9 9 9 9 9 8 8 8 8 8 8 8 8 9 9
7 6 5 5 4 4 4 4 4 5 6 7 8 8 9 9 10 11 11 11 11 11 11 11 11 11 11 11 10 10 10 9 9 9 9 8 8 8 8 8 8 8 8 8 8 8 8 8 8
7 5 4 2 2 3 4 4 4 5 6 7 8 8 8 9 10 10 11 11 11 10 10 10 10 11 10 10 9 9 9 8 8 8 8 8 7 7 7 7 7 7 7 7 7 7 7 8 8
6 5 3 2 2 3 4 4 4 5 6 7 7 7 8 8 9 10 10 10 10 10 10 10 10 10 10 10 9 9 8 8 8 8 7 7 7 7 6 6 6 6 6 6 7 7 7 7 7
6 6 4 3 2 3 3 3 4 5 6 6 7 7 7 8 8 9 10 10 10 10 10 10 10 10 10 9 9 9 9 9 9 8 8 8 7 7 7 6 6 6 6 6 6 6 7 7 7
6 6 5 4 2 2 2 3 4 5 5 6 6 7 7 7 8 9 9 10 10 10 10 10 10 10 10 10 10 9 9 9 10 9 9 9 9 9 9 8 8 8 7 7 6 6 6 7 7
6 6 5 4 3 2 2 3 4 5 6 6 7 7 7 7 8 9 9 9 10 10 10 10 10 10 10 10 10 10 10 11 11 11 11 11 11 11 11 11 11 10 9 9 8 7 7 7 7
6 5 5 4 3 2 2 3 4 6 6 7 7 7 7 7 8 8 9 9 9 10 10 10 10 10 11 11 11 11 11 12 12 12 12 12 12 13 13 12 12 12 11 10 9 9 8 9 9